Terug naar catalogus

STARLINK-32745

ActiefCommunicatieVLEO
NORAD 62755·PAYLOAD·🇺🇸 United States

Gelanceerd Jan 21, 2025 vanaf Cape Canaveral Space Force Station

Loading…

Volgende Passages (komende 24 uur)

TLE

VersSource: CelesTrak SupGP

Epoch: Sep 14, 2026, 21:11 UTC

1 62755C 25014W   26257.88312500 -.00024960  00000+0 -90489-3 0  2578
2 62755  42.9990 166.0844 0001456 270.4971 324.0061 15.27560227    19

Volg STARLINK-32745 in realtime met AllMySat

Download on the App Store